Time,TemperatureF,DewpointF,PressureIn,WindDirection,WindDirectionDegrees,WindSpeedMPH,WindSpeedGustMPH,Humidity,HourlyPrecipIn,Conditions,Clouds,dailyrainin,SoftwareType,DateUTC
2013-01-18 00:02:00,46.0,15.0,30.16,East,101,8.0,14.0,28,0.00,,,0.00,,2013-01-18 08:02:00,
2013-01-18 00:11:00,46.0,15.0,30.16,East,101,8.0,14.0,28,0.00,,,0.00,,2013-01-18 08:11:00,
2013-01-18 00:22:00,46.0,15.0,30.16,East,91,8.0,14.0,28,0.00,,,0.00,,2013-01-18 08:22:00,
2013-01-18 00:32:00,46.0,15.0,30.16,East,89,8.0,15.0,28,0.00,,,0.00,,2013-01-18 08:32:00,
2013-01-18 00:42:00,46.0,15.0,30.16,East,89,8.0,15.0,28,0.00,,,0.00,,2013-01-18 08:42:00,
2013-01-18 00:53:00,46.0,15.0,30.15,East,84,11.0,15.0,28,0.00,,,0.00,,2013-01-18 08:53:00,
2013-01-18 01:02:00,46.0,15.0,30.15,East,89,9.0,13.0,28,0.00,,,0.00,,2013-01-18 09:02:00,
2013-01-18 01:12:00,46.0,15.0,30.15,East,89,9.0,13.0,28,0.00,,,0.00,,2013-01-18 09:12:00,
2013-01-18 01:22:00,46.0,15.0,30.15,East,89,10.0,15.0,28,0.00,,,0.00,,2013-01-18 09:22:00,
2013-01-18 01:32:00,46.0,15.0,30.15,East,87,10.0,15.0,28,0.00,,,0.00,,2013-01-18 09:32:00,
2013-01-18 01:42:00,46.0,15.0,30.15,East,87,10.0,15.0,28,0.00,,,0.00,,2013-01-18 09:42:00,
2013-01-18 01:52:00,46.0,15.0,30.14,East,90,9.0,15.0,28,0.00,,,0.00,,2013-01-18 09:52:00,
2013-01-18 02:02:00,46.0,16.0,30.14,East,89,9.0,15.0,29,0.00,,,0.00,,2013-01-18 10:02:00,
2013-01-18 02:12:00,46.0,16.0,30.14,East,89,9.0,15.0,29,0.00,,,0.00,,2013-01-18 10:12:00,
2013-01-18 02:22:00,46.0,16.0,30.14,East,96,10.0,15.0,29,0.00,,,0.00,,2013-01-18 10:22:00,
2013-01-18 02:32:00,45.0,15.0,30.14,ESE,105,5.0,12.0,30,0.00,,,0.00,,2013-01-18 10:32:00,
2013-01-18 02:42:00,45.0,15.0,30.14,ESE,105,5.0,12.0,30,0.00,,,0.00,,2013-01-18 10:42:00,
2013-01-18 02:52:00,45.0,15.0,30.13,East,101,7.0,12.0,30,0.00,,,0.00,,2013-01-18 10:52:00,
2013-01-18 03:02:00,45.0,15.0,30.13,East,98,8.0,14.0,30,0.00,,,0.00,,2013-01-18 11:02:00,
2013-01-18 03:11:00,45.0,15.0,30.13,East,98,8.0,14.0,30,0.00,,,0.00,,2013-01-18 11:11:00,
2013-01-18 03:22:00,45.0,16.0,30.12,East,98,7.0,14.0,31,0.00,,,0.00,,2013-01-18 11:22:00,
2013-01-18 03:32:00,45.0,16.0,30.12,East,98,6.0,12.0,31,0.00,,,0.00,,2013-01-18 11:32:00,
2013-01-18 03:42:00,45.0,16.0,30.12,East,98,6.0,12.0,31,0.00,,,0.00,,2013-01-18 11:42:00,
2013-01-18 03:53:00,46.0,16.0,30.12,East,96,8.0,18.0,30,0.00,,,0.00,,2013-01-18 11:53:00,
2013-01-18 04:02:00,46.0,16.0,30.12,East,91,11.0,14.0,30,0.00,,,0.00,,2013-01-18 12:02:00,
2013-01-18 04:11:00,46.0,16.0,30.12,East,91,11.0,14.0,30,0.00,,,0.00,,2013-01-18 12:11:00,
2013-01-18 04:22:00,46.0,16.0,30.12,East,100,9.0,15.0,30,0.00,,,0.00,,2013-01-18 12:22:00,
2013-01-18 04:32:00,46.0,16.0,30.12,East,98,9.0,15.0,30,0.00,,,0.00,,2013-01-18 12:32:00,
2013-01-18 04:42:00,46.0,16.0,30.12,East,98,9.0,15.0,30,0.00,,,0.00,,2013-01-18 12:42:00,
2013-01-18 04:52:00,46.0,17.0,30.12,ESE,106,11.0,16.0,31,0.00,,,0.00,,2013-01-18 12:52:00,
2013-01-18 05:02:00,46.0,17.0,30.11,East,92,9.0,17.0,31,0.00,,,0.00,,2013-01-18 13:02:00,
2013-01-18 05:12:00,46.0,17.0,30.11,East,92,9.0,17.0,31,0.00,,,0.00,,2013-01-18 13:12:00,
2013-01-18 05:22:00,46.0,17.0,30.12,East,93,12.0,15.0,31,0.00,,,0.00,,2013-01-18 13:22:00,
2013-01-18 05:32:00,46.0,16.0,30.12,East,88,10.0,14.0,30,0.00,,,0.00,,2013-01-18 13:32:00,
2013-01-18 05:42:00,46.0,16.0,30.12,East,88,10.0,14.0,30,0.00,,,0.00,,2013-01-18 13:42:00,
2013-01-18 05:53:00,46.0,17.0,30.12,East,91,9.0,15.0,31,0.00,,,0.00,,2013-01-18 13:53:00,
2013-01-18 06:02:00,46.0,17.0,30.14,East,85,11.0,15.0,31,0.00,,,0.00,,2013-01-18 14:02:00,
2013-01-18 06:12:00,46.0,17.0,30.14,East,85,11.0,15.0,31,0.00,,,0.00,,2013-01-18 14:12:00,
2013-01-18 06:22:00,46.0,16.0,30.15,East,86,9.0,14.0,30,0.00,,,0.00,,2013-01-18 14:22:00,
2013-01-18 06:33:00,46.0,17.0,30.15,East,90,10.0,14.0,31,0.00,,,0.00,,2013-01-18 14:33:00,
2013-01-18 06:42:00,46.0,17.0,30.15,East,90,10.0,14.0,31,0.00,,,0.00,,2013-01-18 14:42:00,
2013-01-18 06:53:00,46.0,17.0,30.15,East,89,10.0,15.0,31,0.00,,,0.00,,2013-01-18 14:53:00,
2013-01-18 07:02:00,45.0,16.0,30.16,East,101,8.0,16.0,31,0.00,,,0.00,,2013-01-18 15:02:00,
2013-01-18 07:12:00,45.0,16.0,30.16,East,101,8.0,16.0,31,0.00,,,0.00,,2013-01-18 15:12:00,
2013-01-18 07:22:00,45.0,17.0,30.16,East,86,10.0,15.0,32,0.00,,,0.00,,2013-01-18 15:22:00,
2013-01-18 07:32:00,46.0,17.0,30.16,East,89,9.0,18.0,31,0.00,,,0.00,,2013-01-18 15:32:00,
2013-01-18 07:42:00,46.0,17.0,30.16,East,89,9.0,18.0,31,0.00,,,0.00,,2013-01-18 15:42:00,
2013-01-18 07:53:00,47.0,17.0,30.16,East,93,9.0,15.0,30,0.00,,,0.00,,2013-01-18 15:53:00,
2013-01-18 08:02:00,48.0,17.0,30.16,East,91,11.0,15.0,29,0.00,,,0.00,,2013-01-18 16:02:00,
2013-01-18 08:12:00,48.0,17.0,30.16,East,91,11.0,15.0,29,0.00,,,0.00,,2013-01-18 16:12:00,
2013-01-18 08:22:00,49.0,19.0,30.17,East,82,9.0,20.0,30,0.00,,,0.00,,2013-01-18 16:22:00,
2013-01-18 08:32:00,50.0,20.0,30.18,East,87,10.0,18.0,30,0.00,,,0.00,,2013-01-18 16:32:00,
2013-01-18 08:52:00,50.0,19.0,30.18,ENE,77,12.0,20.0,29,0.00,,,0.00,,2013-01-18 16:52:00,
2013-01-18 09:02:00,51.0,20.0,30.19,East,79,11.0,18.0,29,0.00,,,0.00,,2013-01-18 17:02:00,
2013-01-18 09:22:00,51.0,20.0,30.19,East,85,12.0,20.0,29,0.00,,,0.00,,2013-01-18 17:22:00,
2013-01-18 09:33:00,52.0,20.0,30.20,ENE,76,15.0,19.0,28,0.00,,,0.00,,2013-01-18 17:33:00,
2013-01-18 09:53:00,52.0,20.0,30.20,ENE,73,15.0,23.0,28,0.00,,,0.00,,2013-01-18 17:53:00,
2013-01-18 10:02:00,52.0,19.0,30.20,ENE,73,15.0,21.0,27,0.00,,,0.00,,2013-01-18 18:02:00,
2013-01-18 10:12:00,52.0,19.0,30.20,ENE,73,15.0,21.0,27,0.00,,,0.00,,2013-01-18 18:12:00,
2013-01-18 10:22:00,52.0,18.0,30.19,ENE,77,18.0,25.0,26,0.00,,,0.00,,2013-01-18 18:22:00,
2013-01-18 10:32:00,53.0,19.0,30.19,East,82,20.0,24.0,26,0.00,,,0.00,,2013-01-18 18:32:00,
2013-01-18 10:42:00,53.0,19.0,30.19,East,82,20.0,24.0,26,0.00,,,0.00,,2013-01-18 18:42:00,
2013-01-18 10:52:00,53.0,19.0,30.19,ENE,77,19.0,28.0,26,0.00,,,0.00,,2013-01-18 18:52:00,
2013-01-18 11:02:00,54.0,20.0,30.18,East,79,15.0,23.0,26,0.00,,,0.00,,2013-01-18 19:02:00,
2013-01-18 11:12:00,54.0,20.0,30.18,East,79,15.0,23.0,26,0.00,,,0.00,,2013-01-18 19:12:00,
2013-01-18 11:22:00,54.0,19.0,30.17,East,82,17.0,25.0,25,0.00,,,0.00,,2013-01-18 19:22:00,
2013-01-18 11:32:00,54.0,19.0,30.16,ENE,74,17.0,25.0,25,0.00,,,0.00,,2013-01-18 19:32:00,
2013-01-18 11:42:00,54.0,19.0,30.16,ENE,74,17.0,25.0,25,0.00,,,0.00,,2013-01-18 19:42:00,
2013-01-18 11:52:00,54.0,19.0,30.16,ENE,76,14.0,23.0,25,0.00,,,0.00,,2013-01-18 19:52:00,
2013-01-18 12:02:00,55.0,20.0,30.15,ENE,75,14.0,21.0,25,0.00,,,0.00,,2013-01-18 20:02:00,
2013-01-18 12:12:00,55.0,20.0,30.15,ENE,75,14.0,21.0,25,0.00,,,0.00,,2013-01-18 20:12:00,
2013-01-18 12:22:00,55.0,20.0,30.15,East,84,13.0,21.0,25,0.00,,,0.00,,2013-01-18 20:22:00,
2013-01-18 12:32:00,56.0,21.0,30.14,East,80,11.0,20.0,25,0.00,,,0.00,,2013-01-18 20:32:00,
2013-01-18 12:42:00,56.0,21.0,30.14,East,80,11.0,20.0,25,0.00,,,0.00,,2013-01-18 20:42:00,
2013-01-18 12:53:00,56.0,21.0,30.13,ESE,108,11.0,19.0,25,0.00,,,0.00,,2013-01-18 20:53:00,
2013-01-18 13:02:00,57.0,21.0,30.12,ESE,105,10.0,20.0,24,0.00,,,0.00,,2013-01-18 21:02:00,
2013-01-18 13:11:00,57.0,21.0,30.12,ESE,105,10.0,20.0,24,0.00,,,0.00,,2013-01-18 21:11:00,
2013-01-18 13:22:00,57.0,21.0,30.12,East,101,13.0,19.0,24,0.00,,,0.00,,2013-01-18 21:22:00,
2013-01-18 13:32:00,57.0,22.0,30.12,East,97,11.0,19.0,25,0.00,,,0.00,,2013-01-18 21:32:00,
2013-01-18 13:52:00,56.0,21.0,30.13,East,81,11.0,19.0,25,0.00,,,0.00,,2013-01-18 21:52:00,
2013-01-18 14:02:00,56.0,20.0,30.12,East,84,13.0,20.0,24,0.00,,,0.00,,2013-01-18 22:02:00,
2013-01-18 14:11:00,56.0,20.0,30.12,East,84,13.0,20.0,24,0.00,,,0.00,,2013-01-18 22:11:00,
2013-01-18 14:22:00,56.0,20.0,30.12,East,83,10.0,18.0,24,0.00,,,0.00,,2013-01-18 22:22:00,
2013-01-18 14:32:00,56.0,20.0,30.12,East,86,10.0,20.0,24,0.00,,,0.00,,2013-01-18 22:32:00,
2013-01-18 14:42:00,56.0,20.0,30.12,East,86,10.0,20.0,24,0.00,,,0.00,,2013-01-18 22:42:00,
2013-01-18 14:52:00,56.0,21.0,30.12,East,81,9.0,19.0,25,0.00,,,0.00,,2013-01-18 22:52:00,
2013-01-18 15:02:00,55.0,19.0,30.11,East,84,13.0,17.0,24,0.00,,,0.00,,2013-01-18 23:02:00,
2013-01-18 15:11:00,55.0,19.0,30.11,East,84,13.0,17.0,24,0.00,,,0.00,,2013-01-18 23:11:00,
2013-01-18 15:22:00,55.0,20.0,30.12,East,89,11.0,18.0,25,0.00,,,0.00,,2013-01-18 23:22:00,
2013-01-18 15:32:00,55.0,19.0,30.11,ENE,65,10.0,18.0,24,0.00,,,0.00,,2013-01-18 23:32:00,
2013-01-18 15:42:00,55.0,19.0,30.11,ENE,65,10.0,18.0,24,0.00,,,0.00,,2013-01-18 23:42:00,
2013-01-18 15:52:00,54.0,18.0,30.11,East,82,11.0,19.0,24,0.00,,,0.00,,2013-01-18 23:52:00,
2013-01-18 16:02:00,54.0,19.0,30.12,East,86,9.0,18.0,25,0.00,,,0.00,,2013-01-19 00:02:00,
2013-01-18 16:12:00,54.0,19.0,30.12,East,86,9.0,18.0,25,0.00,,,0.00,,2013-01-19 00:12:00,
2013-01-18 16:22:00,53.0,19.0,30.12,ENE,73,8.0,17.0,26,0.00,,,0.00,,2013-01-19 00:22:00,
2013-01-18 16:32:00,53.0,19.0,30.12,East,90,8.0,13.0,26,0.00,,,0.00,,2013-01-19 00:32:00,
2013-01-18 16:42:00,53.0,19.0,30.12,East,90,8.0,13.0,26,0.00,,,0.00,,2013-01-19 00:42:00,
2013-01-18 16:53:00,52.0,19.0,30.12,East,100,6.0,12.0,27,0.00,,,0.00,,2013-01-19 00:53:00,
2013-01-18 17:02:00,49.0,18.0,30.12,ESE,117,6.0,12.0,29,0.00,,,0.00,,2013-01-19 01:02:00,
2013-01-18 17:12:00,49.0,18.0,30.12,ESE,117,6.0,12.0,29,0.00,,,0.00,,2013-01-19 01:12:00,
2013-01-18 17:22:00,49.0,18.0,30.12,ESE,121,7.0,14.0,29,0.00,,,0.00,,2013-01-19 01:22:00,
2013-01-18 17:32:00,48.0,17.0,30.12,SE,126,9.0,13.0,29,0.00,,,0.00,,2013-01-19 01:32:00,
2013-01-18 17:42:00,48.0,17.0,30.12,SE,126,9.0,13.0,29,0.00,,,0.00,,2013-01-19 01:42:00,
2013-01-18 17:52:00,48.0,18.0,30.12,ESE,105,6.0,13.0,30,0.00,,,0.00,,2013-01-19 01:52:00,
2013-01-18 18:02:00,48.0,18.0,30.12,SE,125,7.0,12.0,30,0.00,,,0.00,,2013-01-19 02:02:00,
2013-01-18 18:11:00,48.0,18.0,30.12,SE,125,7.0,12.0,30,0.00,,,0.00,,2013-01-19 02:11:00,
2013-01-18 18:22:00,48.0,18.0,30.12,ESE,111,9.0,14.0,30,0.00,,,0.00,,2013-01-19 02:22:00,
2013-01-18 18:32:00,47.0,17.0,30.12,ESE,103,6.0,13.0,30,0.00,,,0.00,,2013-01-19 02:32:00,
2013-01-18 18:42:00,47.0,17.0,30.12,ESE,103,6.0,13.0,30,0.00,,,0.00,,2013-01-19 02:42:00,
2013-01-18 18:53:00,47.0,17.0,30.13,ENE,78,8.0,12.0,30,0.00,,,0.00,,2013-01-19 02:53:00,
2013-01-18 19:02:00,47.0,17.0,30.13,East,80,8.0,13.0,30,0.00,,,0.00,,2013-01-19 03:02:00,
2013-01-18 19:11:00,47.0,17.0,30.13,East,80,8.0,13.0,30,0.00,,,0.00,,2013-01-19 03:11:00,
2013-01-18 19:22:00,47.0,17.0,30.13,ESE,114,7.0,13.0,30,0.00,,,0.00,,2013-01-19 03:22:00,
2013-01-18 19:32:00,47.0,17.0,30.13,ESE,108,7.0,13.0,30,0.00,,,0.00,,2013-01-19 03:32:00,
2013-01-18 19:42:00,47.0,17.0,30.13,ESE,108,7.0,13.0,30,0.00,,,0.00,,2013-01-19 03:42:00,
2013-01-18 19:52:00,47.0,16.0,30.13,East,93,10.0,15.0,29,0.00,,,0.00,,2013-01-19 03:52:00,
2013-01-18 20:02:00,47.0,16.0,30.13,East,88,9.0,14.0,29,0.00,,,0.00,,2013-01-19 04:02:00,
2013-01-18 20:12:00,47.0,16.0,30.13,East,88,9.0,14.0,29,0.00,,,0.00,,2013-01-19 04:12:00,
2013-01-18 20:22:00,47.0,16.0,30.13,East,95,9.0,14.0,29,0.00,,,0.00,,2013-01-19 04:22:00,
2013-01-18 20:32:00,47.0,16.0,30.14,East,92,9.0,14.0,29,0.00,,,0.00,,2013-01-19 04:32:00,
2013-01-18 20:42:00,47.0,16.0,30.14,East,92,9.0,14.0,29,0.00,,,0.00,,2013-01-19 04:42:00,
2013-01-18 20:53:00,47.0,16.0,30.14,East,95,10.0,14.0,29,0.00,,,0.00,,2013-01-19 04:53:00,
2013-01-18 21:03:00,47.0,16.0,30.14,East,86,8.0,13.0,29,0.00,,,0.00,,2013-01-19 05:03:00,
2013-01-18 21:12:00,47.0,16.0,30.14,East,86,8.0,13.0,29,0.00,,,0.00,,2013-01-19 05:12:00,
2013-01-18 21:22:00,47.0,17.0,30.14,ESE,110,6.0,13.0,30,0.00,,,0.00,,2013-01-19 05:22:00,
2013-01-18 21:32:00,47.0,17.0,30.14,ESE,112,7.0,12.0,30,0.00,,,0.00,,2013-01-19 05:32:00,
2013-01-18 21:42:00,47.0,17.0,30.14,ESE,112,7.0,12.0,30,0.00,,,0.00,,2013-01-19 05:42:00,
2013-01-18 21:53:00,47.0,16.0,30.14,ESE,111,8.0,14.0,29,0.00,,,0.00,,2013-01-19 05:53:00,
2013-01-18 22:02:00,47.0,16.0,30.14,SE,127,7.0,12.0,29,0.00,,,0.00,,2013-01-19 06:02:00,
2013-01-18 22:11:00,47.0,16.0,30.14,SE,127,7.0,12.0,29,0.00,,,0.00,,2013-01-19 06:11:00,
2013-01-18 22:22:00,47.0,16.0,30.14,SE,126,9.0,14.0,29,0.00,,,0.00,,2013-01-19 06:22:00,
2013-01-18 22:32:00,47.0,16.0,30.14,SE,126,10.0,15.0,29,0.00,,,0.00,,2013-01-19 06:32:00,
2013-01-18 22:42:00,47.0,16.0,30.14,SE,126,10.0,15.0,29,0.00,,,0.00,,2013-01-19 06:42:00,
2013-01-18 22:52:00,47.0,16.0,30.14,ESE,119,9.0,16.0,29,0.00,,,0.00,,2013-01-19 06:52:00,
2013-01-18 23:02:00,47.0,16.0,30.14,ESE,121,9.0,15.0,29,0.00,,,0.00,,2013-01-19 07:02:00,
2013-01-18 23:11:00,47.0,16.0,30.14,ESE,121,9.0,15.0,29,0.00,,,0.00,,2013-01-19 07:11:00,
2013-01-18 23:22:00,47.0,16.0,30.14,ESE,122,10.0,18.0,29,0.00,,,0.00,,2013-01-19 07:22:00,
2013-01-18 23:32:00,47.0,16.0,30.14,ESE,115,10.0,18.0,29,0.00,,,0.00,,2013-01-19 07:32:00,
2013-01-18 23:42:00,47.0,16.0,30.14,ESE,115,10.0,18.0,29,0.00,,,0.00,,2013-01-19 07:42:00,
2013-01-18 23:52:00,47.0,16.0,30.13,ESE,119,10.0,14.0,29,0.00,,,0.00,,2013-01-19 07:52:00,